[[{"header":{"parameterUnit":"m.s-1","parameterCategory":1,"la1":30.2991,"la2":30.254,"lo1":-89.0895,"lo2":-89.0444,"dy":0.0017,"dx":0.0017,"nx":28,"ny":28,"refTime":"2024-07-28T21:00:00:Z","depth":0,"parameterNumber":2,"parameterNumberName":"U-component_of_WINDS"},"data":[0,0,0,0,0,0,0,0,0,0,0,0,0,0,0,0,0,0,0,0,0,0,0,0,0,0,0,0,0,0,0,0,0,0,0,0,0,0,0,0,0,0,0,0,0,0,0,0,0,0,0,0,0,0,0,0,0,0,0.1481,0.1482,0,0.154,0.1541,0.1542,0.1541,0.154,0.1539,0.1538,0.1604,0.1607,0.1609,0,0,0,0,0,0,0,0,0,0,0,0,0,0.137,0.1372,0.1481,0.1482,0.1482,0.154,0.1541,0.1542,0.1541,0.154,0.1539,0.1538,0.1603,0.1606,0.1609,0,0,0,0,0,0,0,0,0,0,0,0,0,0.1423,0.1373,0.1481,0.1489,0.149,0.154,0.1541,0.1542,0.1541,0.154,0.1539,0.1537,0.1602,0.1606,0.161,0.1657,0,0,0.1621,0.1623,0,0,0,0,0,0,0,0,0.142,0.1427,0.1487,0.1488,0.149,0.1532,0.1526,0.1581,0.1541,0.1522,0.1538,0.1537,0.1581,0.1587,0.1601,0.166,0.1663,0.1622,0.1624,0.1625,0.1626,0,0,0,0,0,0,0,0.1416,0.1424,0.1505,0.1488,0.1489,0.149,0.1497,0.1537,0.1558,0.1523,0.1523,0.153,0.1582,0.1597,0.1602,0.1664,0.1621,0.1625,0.1627,0.1629,0.1766,0.1767,0,0,0,0,0,0,0.141,0.1421,0.1503,0.1506,0.1451,0.1493,0.15,0.152,0.1557,0.1562,0.1531,0.153,0.1591,0.1598,0.1605,0.1663,0.1625,0.1629,0.1631,0.1764,0.1766,0.1768,0,0,0,0,0,0,0.1408,0.1418,0.15,0.1464,0.1474,0.1497,0.1518,0.1521,0.1537,0.1563,0.1567,0.1543,0.1591,0.1599,0.1644,0.1665,0.1631,0.1634,0.1763,0.1765,0.1767,0.178,0,0,0,0,0,0,0.1405,0.1417,0.1434,0.1464,0.1476,0.1537,0.152,0.1523,0.1542,0.1541,0.1575,0.1579,0.159,0.1638,0.1648,0.167,0.1637,0.1761,0.1764,0.1766,0.1778,0.1782,0.1786,0,0,0,0,0,0.1401,0.1437,0.1435,0.1445,0.1498,0.1539,0.1546,0.1556,0.1544,0.1563,0.1579,0.1578,0.1661,0.1643,0.1653,0.1677,0.176,0.1763,0.1766,0.1776,0.1782,0.1786,0,0,0,0,0,0,0.1411,0.1441,0.144,0.1486,0.1509,0.1538,0.1562,0.1562,0.159,0.1589,0.1601,0.1609,0.1654,0.167,0.1649,0.1725,0.1709,0.1714,0.1713,0.1719,0.1723,0.1719,0.164,0,0,0,0,0,0.1418,0.1447,0.1472,0.1511,0.1522,0.154,0.1558,0.1563,0.1589,0.16,0.162,0.1646,0.1678,0.1699,0.173,0.1779,0.1787,0.1801,0.1805,0.1808,0.1814,0.1841,0.1848,0.1778,0.1778,0.1778,0,0,0.1434,0.1454,0.1472,0.1513,0.1532,0.1563,0.1549,0.1582,0.1605,0.1605,0.1648,0.1664,0.1694,0.1741,0.1763,0.1756,0.1834,0.1812,0.1815,0.1818,0.1845,0.1852,0.1858,0.178,0.1779,0.1779,0,0,0.1479,0.1496,0.1531,0.1549,0.1577,0.1589,0.1597,0.1625,0.1635,0.1678,0.1679,0.1707,0.1762,0.1783,0.1801,0.1852,0.1853,0.1862,0.1884,0.1911,0.1917,0.1922,0.1941,0.1948,0.1866,0.1867,0.1867,0,0.1496,0.1541,0.1549,0.1581,0.16,0.1599,0.1634,0.1653,0.169,0.1704,0.1694,0.1762,0.1782,0.1835,0.1847,0.1861,0.1872,0.1859,0.1915,0.192,0.1925,0.1943,0.195,0.1868,0.1867,0.1867,0.1867,0,0.1561,0.1592,0.1616,0.165,0.1671,0.1705,0.1719,0.1739,0.1743,0.1755,0.1799,0.1823,0.1858,0.1871,0.1875,0.1924,0.1919,0.1912,0.1897,0.1933,0.195,0.1957,0.1869,0.1869,0.1868,0.1868,0,0,0.1615,0.1652,0.1661,0.1676,0.1706,0.1731,0.1765,0.1798,0.1816,0.1841,0.1871,0.1916,0.191,0.193,0.1937,0.196,0.2,0.1951,0.1952,0.196,0.2056,0.2061,0.2069,0.1999,0.2001,0.2002,0.2053,0,0.1664,0.1723,0.173,0.1783,0.1812,0.1811,0.1841,0.1864,0.1876,0.1903,0.1917,0.1949,0.1938,0.1951,0.1973,0.199,0.202,0.1986,0.2029,0.203,0.2022,0.2078,0.2084,0.2132,0.206,0.2061,0.2062,0,0.1729,0.1755,0.181,0.1836,0.1848,0.1875,0.1905,0.1931,0.1956,0.1964,0.1985,0.1989,0.2025,0.2006,0.2057,0.2034,0.2052,0.2062,0.2064,0.207,0.2049,0.2086,0.2147,0.2155,0.2073,0.2072,0.2071,0,0.1765,0.1813,0.1852,0.1865,0.1896,0.1914,0.1928,0.1952,0.1971,0.1998,0.2011,0.2042,0.206,0.2085,0.2097,0.2082,0.2147,0.2129,0.2155,0.2155,0.217,0.2169,0.2236,0.2179,0.2179,0.2179,0.2179,0,0.1819,0.1853,0.1868,0.1892,0.1931,0.1939,0.1977,0.199,0.2012,0.2039,0.2041,0.2067,0.208,0.2109,0.2119,0.2159,0.2167,0.2175,0.2177,0.2176,0.2175,0.2188,0.2186,0.2181,0.218,0.218,0.218,0,0.1866,0.1877,0.192,0.1944,0.1951,0.1979,0.2001,0.2025,0.2036,0.2071,0.208,0.2098,0.2131,0.2145,0.2187,0.2193,0.224,0.224,0.2231,0.2233,0.2258,0.2256,0.2337,0.2348,0.2283,0.2283,0.2284,0,0.19,0.1926,0.1953,0.1971,0.1985,0.2014,0.2033,0.2042,0.2062,0.2092,0.2113,0.2146,0.2173,0.2227,0.2244,0.2276,0.2277,0.2303,0.2282,0.2279,0.2279,0.2277,0.228,0.2308,0.2308,0.2309,0.2309,0,0.1961,0.1964,0.1991,0.2019,0.2042,0.2065,0.2088,0.2102,0.2115,0.2137,0.2171,0.2191,0.2233,0.2266,0.2299,0.2314,0.2315,0.2315,0.2323,0.2322,0.2317,0.2321,0.2243,0.2314,0.2314,0.2313,0.2313,0.2313,0.2003,0.2026,0.2048,0.2078,0.2095,0.2116,0.214,0.2153,0.2181,0.2214,0.2218,0.2254,0.2279,0.2322,0.2339,0.2368,0.2361,0.2372,0.2376,0.2378,0.238,0.2311,0.2374,0.2373,0.2373,0.2373,0.2373,0,0.2064,0.2078,0.2105,0.2136,0.2159,0.2155,0.2179,0.22,0.2231,0.2253,0.2279,0.2317,0.2349,0.2369,0.2401,0.242,0.2421,0.2429,0.2428,0.2432,0.2384,0.2374,0.2427,0.2427,0.2427,0.2427,0.2427,0.2427,0.2099,0.2137,0.2144,0.2191,0.2205,0.2239,0.2254,0.2274,0.2291,0.2333,0.2359,0.2371,0.2392,0.2426,0.2455,0.246,0.2473,0.2481,0.2485,0.2441,0.2435,0.243,0.2421,0.2483,0.2483,0.2531,0.2531,0.2532]},{"header":{"parameterUnit":"m.s-1","parameterCategory":1,"la1":30.2991,"la2":30.254,"lo1":-89.0895,"lo2":-89.0444,"dy":0.0017,"dx":0.0017,"nx":28,"ny":28,"refTime":"2024-07-28T21:00:00:Z","depth":0,"parameterNumber":3,"parameterNumberName":"V-component_of_WINDS"},"data":[0,0,0,0,0,0,0,0,0,0,0,0,0,0,0,0,0,0,0,0,0,0,0,0,0,0,0,0,0,0,0,0,0,0,0,0,0,0,0,0,0,0,0,0,0,0,0,0,0,0,0,0,0,0,0,0,0,0,3.7605,3.7604,0,3.755,3.7549,3.7549,3.7523,3.7523,3.7523,3.7524,3.7461,3.7459,3.7458,0,0,0,0,0,0,0,0,0,0,0,0,0,3.7683,3.7681,3.7605,3.7604,3.7604,3.755,3.7549,3.7549,3.7523,3.7523,3.7524,3.7524,3.7462,3.746,3.7457,0,0,0,0,0,0,0,0,0,0,0,0,0,3.764,3.7681,3.7605,3.7585,3.7582,3.755,3.7549,3.7548,3.7523,3.7523,3.7524,3.7524,3.7462,3.746,3.7457,3.7439,0,0,3.7449,3.7448,0,0,0,0,0,0,0,0,3.7643,3.7637,3.7588,3.7586,3.7583,3.7544,3.7554,3.7512,3.7523,3.7546,3.7524,3.7524,3.7488,3.7483,3.7473,3.7436,3.7434,3.7449,3.7447,3.7446,3.7446,0,0,0,0,0,0,0,3.7646,3.764,3.7583,3.7588,3.7585,3.7577,3.7571,3.7546,3.7517,3.7544,3.7542,3.7536,3.7487,3.7475,3.7471,3.7433,3.7449,3.7447,3.7445,3.7444,3.7379,3.7379,0,0,0,0,0,0,3.7653,3.7642,3.7585,3.7581,3.7614,3.7575,3.7568,3.7556,3.7517,3.7511,3.7536,3.7535,3.748,3.7474,3.7469,3.7445,3.7446,3.7444,3.7442,3.7379,3.7379,3.7379,0,0,0,0,0,0,3.7655,3.7648,3.7587,3.7611,3.7603,3.7574,3.756,3.7555,3.7544,3.7511,3.7505,3.753,3.7479,3.7472,3.7447,3.7443,3.7443,3.744,3.7379,3.7379,3.7379,3.7398,0,0,0,0,0,0,3.7657,3.7649,3.7643,3.7611,3.7602,3.7568,3.756,3.7554,3.754,3.7538,3.7504,3.7498,3.7479,3.7451,3.7445,3.7439,3.7438,3.7379,3.7379,3.7379,3.7398,3.7399,3.7399,0,0,0,0,0,3.766,3.7649,3.7643,3.7636,3.7594,3.7568,3.7562,3.7542,3.754,3.7533,3.7512,3.7499,3.7445,3.7449,3.7441,3.7435,3.738,3.7379,3.7379,3.7398,3.7399,3.7399,0,0,0,0,0,0,3.7678,3.7645,3.7637,3.7616,3.7596,3.7564,3.7554,3.7544,3.7521,3.752,3.7494,3.7487,3.7464,3.7447,3.7452,3.7415,3.7411,3.7409,3.7428,3.7428,3.7429,3.7433,3.7436,0,0,0,0,0,3.768,3.7664,3.7634,3.7619,3.7609,3.7584,3.7571,3.7558,3.7534,3.7525,3.7502,3.7478,3.7455,3.7441,3.7418,3.7395,3.7387,3.7387,3.7388,3.7389,3.7387,3.7374,3.7373,3.7377,3.7377,3.7377,0,0,3.7683,3.7663,3.7654,3.7622,3.7604,3.7586,3.7576,3.7557,3.7543,3.7521,3.7497,3.7479,3.7451,3.7427,3.7415,3.7412,3.7384,3.7388,3.7389,3.7387,3.7373,3.7373,3.7373,3.7377,3.7377,3.7377,0,0,3.768,3.7664,3.7649,3.7632,3.7606,3.759,3.7586,3.7557,3.7545,3.7521,3.7504,3.7486,3.7447,3.7428,3.7413,3.7404,3.7391,3.7397,3.74,3.7388,3.7387,3.7387,3.7383,3.7382,3.7395,3.7395,3.7395,0,3.7687,3.7661,3.7642,3.7625,3.7611,3.7593,3.7577,3.7561,3.7528,3.7518,3.7516,3.7468,3.7447,3.7419,3.7417,3.7405,3.7399,3.74,3.7389,3.7389,3.7388,3.7384,3.7383,3.7396,3.7396,3.7396,3.7396,0,3.7671,3.7653,3.7644,3.7615,3.76,3.7584,3.7561,3.7548,3.7536,3.7519,3.7494,3.7469,3.7441,3.7434,3.742,3.7403,3.7402,3.7395,3.7389,3.7389,3.7385,3.7383,3.7397,3.7397,3.7397,3.7397,0,0,3.7676,3.7639,3.7636,3.7623,3.7594,3.7579,3.7561,3.7536,3.7525,3.7503,3.7487,3.7456,3.7449,3.7432,3.7417,3.7406,3.74,3.7399,3.7398,3.74,3.7379,3.7384,3.7383,3.7392,3.7391,3.7391,3.7381,0,3.7669,3.7639,3.7622,3.7598,3.7581,3.7564,3.7548,3.7528,3.7512,3.7493,3.7475,3.7453,3.7446,3.7436,3.7424,3.7403,3.7395,3.7403,3.7374,3.7374,3.7382,3.7381,3.7387,3.7378,3.7379,3.7379,3.7379,0,3.7656,3.7638,3.7613,3.7586,3.7578,3.7565,3.7541,3.7524,3.75,3.7489,3.7471,3.7456,3.7435,3.7432,3.7402,3.7409,3.7396,3.7384,3.7383,3.7379,3.7376,3.7376,3.7375,3.7374,3.7376,3.7376,3.7376,0,3.7663,3.7631,3.7613,3.7602,3.757,3.7561,3.7547,3.7524,3.751,3.7488,3.7479,3.7454,3.7441,3.7421,3.7399,3.7399,3.7371,3.7367,3.736,3.7361,3.7355,3.7355,3.7351,3.7347,3.7347,3.7347,3.7347,0,3.7657,3.7642,3.7615,3.7604,3.7587,3.7567,3.7549,3.7534,3.7513,3.7497,3.748,3.7464,3.7437,3.7418,3.74,3.7378,3.7372,3.7361,3.7357,3.7363,3.7364,3.7353,3.7353,3.7347,3.7347,3.7347,3.7347,0,3.7661,3.7643,3.7621,3.7594,3.7587,3.7575,3.7551,3.7538,3.7522,3.7502,3.7496,3.7469,3.7446,3.7423,3.739,3.7379,3.7357,3.7351,3.7366,3.7363,3.7358,3.7359,3.7347,3.7344,3.7342,3.7342,3.7342,0,3.7658,3.7647,3.7619,3.7608,3.7596,3.7578,3.7565,3.7544,3.753,3.7503,3.7493,3.7469,3.7449,3.7412,3.7389,3.7364,3.7357,3.7354,3.7353,3.7359,3.7356,3.7357,3.7356,3.7355,3.7355,3.7355,3.7355,0,3.7654,3.7646,3.7629,3.7609,3.7594,3.7576,3.7557,3.7549,3.7524,3.751,3.7487,3.7472,3.744,3.7416,3.7389,3.7372,3.7359,3.7356,3.7353,3.7359,3.7368,3.7363,3.7367,3.7356,3.7356,3.7356,3.7356,3.7356,3.7655,3.7644,3.7624,3.7605,3.7589,3.7573,3.756,3.7543,3.7524,3.7499,3.7487,3.7464,3.744,3.7403,3.7386,3.7367,3.7363,3.7359,3.7358,3.7357,3.7359,3.7372,3.7362,3.7362,3.7362,3.7361,3.7361,0,3.765,3.7636,3.7619,3.7595,3.758,3.7572,3.7551,3.7539,3.752,3.7499,3.7481,3.7454,3.7431,3.7407,3.7382,3.7371,3.7364,3.7365,3.7365,3.7361,3.7363,3.7368,3.7371,3.7371,3.7371,3.7371,3.7371,3.7371,3.7646,3.7628,3.7617,3.7591,3.7577,3.7556,3.7545,3.7529,3.7513,3.7485,3.7467,3.7452,3.743,3.7403,3.7381,3.7374,3.7366,3.7368,3.7359,3.7362,3.7361,3.736,3.7365,3.7366,3.7366,3.7359,3.7359,3.7359]}]]